This is the latest recevied weather packets stored in our database for station/object WA0GMH-1. If no packets are shown the sender has not sent any weather packets the latest 10 day(s).
| Time | Temp. | Humidity | Pressure | Rain* | Wind** | Luminosity | Snow |
|---|---|---|---|---|---|---|---|
| 1778160863 | 6.67° C | 16% | 1010.4 hPa | 0 mm | - | - | - |
| 1778160460 | 6.11° C | 17% | 1010.6 hPa | 0 mm | - | - | - |
| 1778160058 | 5.56° C | 18% | 1010.4 hPa | 0 mm | - | - | - |
| 1778159656 | 5° C | 17% | 1010.2 hPa | 0 mm | - | - | - |
| 1778159254 | 4.44° C | 16% | 1010.4 hPa | 0 mm | - | - | - |
| 1778158851 | 4.44° C | 15% | 1010.1 hPa | 0 mm | - | - | - |
| 1778158450 | 4.44° C | 16% | 1010.1 hPa | 0 mm | - | - | - |
| 1778158047 | 3.89° C | 16% | 1010 hPa | 0 mm | - | - | - |
| 1778157645 | 3.89° C | 16% | 1009.8 hPa | 0 mm | - | - | - |
| 1778157242 | 3.33° C | 15% | 1009.9 hPa | 0 mm | - | - | - |
| 1778156840 | 3.33° C | 15% | 1009.9 hPa | 0 mm | - | - | - |
| 1778156438 | 2.78° C | 14% | 1009.8 hPa | 0 mm | - | - | - |
| 1778156057 | 2.78° C | 14% | 1009.8 hPa | 0 mm | - | - | - |
| 1778155633 | 2.78° C | 13% | 1009.8 hPa | 0 mm | - | - | - |
| 1778155232 | 2.78° C | 13% | 1009.7 hPa | 0 mm | - | - | - |
| 1778154829 | 2.78° C | 13% | 1009.9 hPa | 0 mm | - | - | - |
| 1778154427 | 2.78° C | 13% | 1009.8 hPa | 0 mm | - | - | - |
| 1778154024 | 2.78° C | 13% | 1009.7 hPa | 0 mm | - | - | - |
| 1778153622 | 2.78° C | 13% | 1009.7 hPa | 0 mm | - | - | - |
| 1778153220 | 2.78° C | 13% | 1009.7 hPa | 0 mm | - | - | - |
| 1778152818 | 3.33° C | 12% | 1009.8 hPa | 0 mm | - | - | - |
| 1778152415 | 3.33° C | 11% | 1009.7 hPa | 0 mm | - | - | - |
| 1778152013 | 3.33° C | 10% | 1009.7 hPa | 0 mm | - | - | - |
| 1778151611 | 3.89° C | 10% | 1009.6 hPa | 0 mm | - | - | - |
| 1778151209 | 3.89° C | 9% | 1009.7 hPa | 0 mm | - | - | - |
* Rain since midnight (hover to see other rain measurements)
** Current wind speed in m/s (hover to see current wind gust speed)